{"data":{"norad_id":28659,"intl_designator":"2005-019A","name":"DIRECTV 8","alt_names":[],"object_type":"PAYLOAD","status":"ACTIVE","operator":null,"country":"US","launch_date":"2005-05-22","launch_site_code":"TYMSC","launch_vehicle":null,"mission":null,"orbit_class":"UNKNOWN","rcs_meters":16.6707,"size_class":null,"mass_kg":null,"dimensions":null,"purposes":["comms"],"wikipedia_slug":null,"has_3d_model":false,"image_url":null,"decayed_at":null,"tle_current":{"epoch":"2026-05-25T03:42:38.615040Z","epoch_age_seconds":57769,"freshness":"FRESH","line1":"1 28659U 05019A   26145.15461360 -.00000001  00000+0  00000+0 0  9999","line2":"2 28659   0.0154 343.5588 0003259  88.0805 107.7127  1.00272224 76846","mean_motion":1.00272224,"eccentricity":0.0003259,"inclination_deg":0.0154,"raan_deg":343.5588,"arg_perigee_deg":88.0805,"mean_anomaly_deg":107.7127,"bstar":0,"rev_number":7684,"period_min":1436.0906166797,"perigee_km":35772.730447965,"apogee_km":35800.213340042,"semimajor_km":42164.608894004,"source":"CELESTRAK","updated_at":"2026-05-25T13:38:14.324572Z"}}}